Other Surface Observations
Issued by NWS

Home | Current Version | Previous Version | Text Only | Print | Product List | Glossary On
Versions: 1 2 3 4 5 6 7 8 9 10 11 12 13 14 15 16 17 18 19 20 21 22 23 24 25 26 27 28 29 30 31 32 33 34 35 36 37 38 39 40 41 42 43 44 45 46 47 48 49 50
000
SXUS52 KTAE 291519
OSOTAE
OSOTAE
North Florida/South Alabama/Southwest Georgia Weather Roundup
National Weather Service Tallahassee Florida
1100 AM EDT WED JUL 29 2015

Note: "fair" indicates few or no clouds below 12,000 feet with no
significant weather and/or obstructions to visibility.

!FLZ017-115-028-034-025-291600
...North Florida...

CITY           SKY/WX    TMP DP  RH WIND       PRES   REMARKS
TALLAHASSEE    MOSUNNY   91  77  63 NW6       29.99S HX 104
APALACHICOLA   PTSUNNY   90  78  68 N10       29.99S HX 104
PERRY          SUNNY     89  77  68 NW3       30.00R HX 102
CROSS CITY       N/A     85  77  77 N7        29.98S HX  95
JACKSONVILLE   PTSUNNY   88  73  61 N8        29.98S HX  95
$$

!FLZ112-006-005-002-011-291600
...Florida Panhandle...

CITY           SKY/WX    TMP DP  RH WIND       PRES   REMARKS
MARIANNA       PTSUNNY   87  78  74 NW6       30.00S HX 100
BONIFAY        FAIR      89  76  65 N3        30.01S HX 100
PANAMA CITY NW FAIR      91  74  57 N9        29.99S HX 100
TYNDALL AFB    SUNNY     91  75  59 NW8       30.00S HX 101
TYND DRONE APT FAIR      91  76  62 NW9       29.99S HX 103
DE FUNIAK SPR  PTSUNNY   86  75  68 N5        30.02S HX  94
EGLIN AFB      PTSUNNY   90  75  61 N5        30.00S HX  99
DESTIN         SUNNY     90  77  65 N8        30.00S HX 103
HURLBURT       MOSUNNY   91  74  57 N6        29.98F HX 101
CRESTVIEW      MOSUNNY   90  77  65 NW5       30.02F HX 103
PENSACOLA      MOSUNNY   88  74  63 NW9       30.01S HX  96
$$

!ALZ063-066-291600
...South Alabama...

CITY           SKY/WX    TMP DP  RH WIND       PRES   REMARKS
DOTHAN         SUNNY     89  74  60 N8        30.05S HX  98
OZARK CAIRNS   SUNNY     89  76  65 NW6       30.01F HX  99
FT RUCKER HELI SUNNY     92  74  55 VRB5      30.00F HX 101
RUCKER HELI 3  FAIR      89  73  58 N9        30.03F HX  97
RUCKER HELI 2  FAIR      89  76  65 N8        30.00F HX 100
FLORALA APT    MOSUNNY   90  75  61 VRB5      30.03S HX 100
ANDALUSIA      MOSUNNY   96  74  48 N6        30.01S HX 107
TROY           SUNNY     91  75  59 N5        30.02S HX 101
EUFALA         FAIR      90  76  63 CALM      29.99F HX 101
MOBILE         PTSUNNY   88  76  67 NW7       30.04F HX  99
$$

!GAZ120>161-291600
...Southwest and South Central Georgia...

CITY           SKY/WX    TMP DP  RH WIND       PRES   REMARKS
THOMASVILLE    PTSUNNY   86  77  74 CALM      30.01R HX  97
BAINBRIDGE     MOSUNNY   88  77  70 NW6       30.00S HX 100
MOODY AFB      PTSUNNY   86  77  73 VRB2      29.99R HX  97
VALDOSTA       MOSUNNY   87  79  76 CALM      29.99S HX 101
MOULTRIE       MOSUNNY   88  75  66 W3        30.01R HX  97
BLAKELY        SUNNY     90  79  70 NW6       30.00F HX 105
ALBANY         SUNNY     91  74  57 VRB5      30.01S HX 100
TIFTON         PTSUNNY   88  72  58 W3        29.99S HX  95
FITZGERALD     PTSUNNY   88  77  69 CALM      30.02S HX  99
CORDELE        FAIR      90  77  65 CALM      30.01S HX 102
AMERICUS       FAIR      88  72  58 N5        30.02S HX  94
HOMERVILLE     FAIR      90  79  70 CALM      30.00S HX 105
$$

!GMZ750-755-770-775-291600
...Coastal and Buoy Obs...

STATION/POSITION TIME  TEMP    WIND        PRES    VSBY  WAVE
                       AIR SEA DIR/SP/G                  HT/PER
                 (UTC) (F)     (DEG/KT/KT) (MB)    (MI)  (FT/S)
KEATON BEACH     1500   87     290/  3/  5 1015.5R
CEDAR KEY        1500   88     360/  6/  9 1015.8R
C TOWER          1500   85     310/ 12/ 13 1015.4S
APALACHICOLA BUO 1450   87 85  310/ 10/ 12 1015.8R         2/ 4
PANAMA CITY BUOY 1450   87 87  330/ 14/ 16 1016.1F         2/ 4
MOBILE BUOY      1450   86 88  320/ 14/ 16 1017.0R         2/ 3
ORANGE BCH AL BU 1450   84 84  300/ 14/ 16 1015.6S         2/ 4
$$



USA.gov is the U.S. government's official web portal to all federal, state and local government web resources and services.